Kearney, NE

4:44 PM CDT on August 27, 2016 (GMT -0500)
Kearney Municipal

Weather History for KEAR - October, 2012

Change the Weather History Date:

Friday, October 5, 2012

  Actual Average Record
Temperature  
Mean Temperature 38 °F 55 °F  
Max Temperature 46 °F 69 °F 93 °F (1947)
Min Temperature 30 °F 41 °F 30 °F (1935)
Degree Days  
Heating Degree Days 27 10  
Month to date heating degree days 48  
Since 1 July heating degree days 197  
Cooling Degree Days 0 0  
Month to date cooling degree days 4  
Year to date cooling degree days 869  
Moisture  
Dew Point 28 °F    
Average Humidity 65    
Maximum Humidity 76    
Minimum Humidity 53    
Precipitation  
Precipitation 0.00 in - 2.22 in (1969)
Sea Level Pressure  
Sea Level Pressure 30.33 in    
Wind  
Wind Speed 7 mph (NW)    
Max Wind Speed 10 mph    
Max Gust Speed 18 mph    
Visibility 10 miles    
Events      
T = Trace of Precipitation, MM = Missing Value Source: NWS Daily Summary

Daily Weather History Graph

Daily Weather History Graph

Search for Another Location

Airport or City:

Trip Planner

Search our weather history database for the weather conditions in past years. The results will help you decide how hot, cold, wet, or windy it might be!

Date:

Astronomy

Oct. 05, 2012 Rise Set
Actual Time 7:37 AM CDT 7:10 PM CDT
Civil Twilight 7:09 AM CDT 7:37 PM CDT
Nautical Twilight 6:38 AM CDT 8:09 PM CDT
Astronomical Twilight 6:06 AM CDT 8:41 PM CDT
Moon 10:33 PM CDT (10/5) 12:47 PM CDT (10/5)
Length of Visible Light 12h 28m
Length of Day
11h 33m
Waning Gibbous, 74% of the Moon is Illuminated
Oct 5
Waning Gibbous
Oct 8
Last Quarter
Oct 15
New
Oct 21
First Quarter
Oct 29
Full

Hourly Weather History & Observations

Time (CDT) Temp. Windchill Dew Point Humidity Pressure Visibility Wind Dir Wind Speed Gust Speed Precip Events Conditions
12:15 AM 37.4 °F 30.8 °F 26.6 °F 65% 30.33 in 10.0 mi North 9.2 mph - N/A   Clear
12:35 AM 37.4 °F 31.4 °F 26.6 °F 65% 30.34 in 10.0 mi North 8.1 mph - N/A   Clear
12:55 AM 37.4 °F 34.9 °F 26.6 °F 65% 30.34 in 10.0 mi NNW 3.5 mph - N/A   Clear
1:15 AM 37.4 °F 34.9 °F 26.6 °F 65% 30.33 in 10.0 mi NNW 3.5 mph - N/A   Clear
1:35 AM 37.4 °F 32.8 °F 26.6 °F 65% 30.34 in 10.0 mi NW 5.8 mph - N/A   Clear
1:55 AM 37.4 °F 34.9 °F 26.6 °F 65% 30.33 in 10.0 mi NNW 3.5 mph - N/A   Clear
2:15 AM 35.6 °F 31.7 °F 24.8 °F 65% 30.33 in 10.0 mi NW 4.6 mph - N/A   Clear
2:35 AM 35.6 °F 32.8 °F 24.8 °F 65% 30.33 in 10.0 mi NNW 3.5 mph - N/A   Clear
2:55 AM 33.8 °F 29.6 °F 24.8 °F 70% 30.32 in 10.0 mi NNW 4.6 mph - N/A   Clear
3:15 AM 33.8 °F 29.6 °F 24.8 °F 70% 30.33 in 10.0 mi NNW 4.6 mph - N/A   Clear
3:35 AM 33.8 °F 28.6 °F 24.8 °F 70% 30.33 in 10.0 mi NW 5.8 mph - N/A   Clear
3:55 AM 32.0 °F 27.5 °F 24.8 °F 75% 30.32 in 10.0 mi NW 4.6 mph - N/A   Clear
4:15 AM 32.0 °F 28.7 °F 24.8 °F 75% 30.31 in 10.0 mi NW 3.5 mph - N/A   Clear
4:35 AM 30.2 °F 24.3 °F 24.8 °F 80% 30.32 in 10.0 mi NW 5.8 mph - N/A   Clear
4:55 AM 32.0 °F 28.7 °F 24.8 °F 75% 30.30 in 10.0 mi NNW 3.5 mph - N/A   Clear
5:15 AM 32.0 °F 26.4 °F 24.8 °F 75% 30.31 in 10.0 mi NNW 5.8 mph - N/A   Clear
5:35 AM 33.8 °F 29.6 °F 24.8 °F 70% 30.33 in 10.0 mi NW 4.6 mph - N/A   Partly Cloudy
5:55 AM 33.8 °F 28.6 °F 24.8 °F 70% 30.32 in 10.0 mi NW 5.8 mph - N/A   Mostly Cloudy
6:15 AM 33.8 °F 27.7 °F 26.6 °F 75% 30.32 in 10.0 mi NW 6.9 mph - N/A   Overcast
6:35 AM 35.6 °F 29.2 °F 26.6 °F 70% 30.32 in 10.0 mi NW 8.1 mph - N/A   Overcast
6:55 AM 35.6 °F 28.6 °F 26.6 °F 70% 30.31 in 10.0 mi North 9.2 mph - N/A   Overcast
7:15 AM 35.6 °F 28.6 °F 26.6 °F 70% 30.30 in 10.0 mi North 9.2 mph - N/A   Overcast
7:35 AM 35.6 °F 27.1 °F 26.6 °F 70% 30.31 in 10.0 mi North 12.7 mph - N/A   Overcast
7:55 AM 35.6 °F 29.2 °F 26.6 °F 70% 30.32 in 10.0 mi North 8.1 mph - N/A   Overcast
8:15 AM 37.4 °F 30.8 °F 26.6 °F 65% 30.32 in 10.0 mi North 9.2 mph - N/A   Overcast
8:35 AM 35.6 °F 28.6 °F 26.6 °F 70% 30.32 in 10.0 mi NNE 9.2 mph - N/A   Overcast
8:55 AM 37.4 °F 30.8 °F 26.6 °F 65% 30.33 in 10.0 mi NNE 9.2 mph - N/A   Overcast
9:15 AM 37.4 °F 32.8 °F 26.6 °F 65% 30.35 in 10.0 mi North 5.8 mph - N/A   Mostly Cloudy
9:35 AM 37.4 °F 32.8 °F 26.6 °F 65% 30.36 in 10.0 mi North 5.8 mph - N/A   Overcast
9:55 AM 37.4 °F 33.8 °F 26.6 °F 65% 30.36 in 10.0 mi NNE 4.6 mph - N/A   Mostly Cloudy
10:15 AM 37.4 °F 34.9 °F 26.6 °F 65% 30.37 in 10.0 mi North 3.5 mph - N/A   Overcast
10:35 AM 39.2 °F 37.0 °F 26.6 °F 61% 30.38 in 10.0 mi North 3.5 mph - N/A   Overcast
10:55 AM 39.2 °F 34.2 °F 26.6 °F 61% 30.38 in 10.0 mi NNE 6.9 mph - N/A   Overcast
11:15 AM 39.2 °F 33.6 °F 26.6 °F 61% 30.38 in 10.0 mi North 8.1 mph - N/A   Overcast
11:35 AM 41.0 °F 33.5 °F 26.6 °F 57% 30.38 in 10.0 mi North 13.8 mph 18.4 mph N/A   Overcast
11:55 AM 39.2 °F 33.6 °F 28.4 °F 65% 30.38 in 10.0 mi NNE 8.1 mph - N/A   Overcast
12:15 PM 41.0 °F 35.2 °F 28.4 °F 61% 30.39 in 10.0 mi North 9.2 mph - N/A   Overcast
12:35 PM 41.0 °F 35.8 °F 30.2 °F 65% 30.38 in 10.0 mi North 8.1 mph - N/A   Overcast
12:55 PM 41.0 °F 34.7 °F 30.2 °F 65% 30.38 in 10.0 mi NNW 10.4 mph - N/A   Overcast
1:35 PM 41.0 °F 36.4 °F 33.8 °F 76% 30.36 in 10.0 mi NNW 6.9 mph - N/A   Overcast
1:55 PM 41.0 °F 38.0 °F 33.8 °F 76% 30.35 in 10.0 mi NW 4.6 mph - N/A   Mostly Cloudy
2:15 PM 42.8 °F 41.1 °F 33.8 °F 70% 30.34 in 10.0 mi WNW 3.5 mph - N/A   Partly Cloudy
2:35 PM 44.6 °F 40.7 °F 33.8 °F 66% 30.32 in 10.0 mi WNW 6.9 mph - N/A   Mostly Cloudy
2:55 PM 44.6 °F 40.2 °F 30.2 °F 57% 30.32 in 10.0 mi West 8.1 mph - N/A   Mostly Cloudy
3:15 PM 44.6 °F 39.7 °F 30.2 °F 57% 30.32 in 10.0 mi WNW 9.2 mph - N/A   Scattered Clouds
3:35 PM 44.6 °F 38.4 °F 30.2 °F 57% 30.32 in 10.0 mi West 12.7 mph 17.3 mph N/A   Scattered Clouds
3:55 PM 44.6 °F 40.2 °F 28.4 °F 53% 30.31 in 10.0 mi WNW 8.1 mph - N/A   Partly Cloudy
4:15 PM 44.6 °F 40.2 °F 28.4 °F 53% 30.31 in 10.0 mi NW 8.1 mph - N/A   Mostly Cloudy
4:35 PM 44.6 °F 39.2 °F 28.4 °F 53% 30.31 in 10.0 mi WNW 10.4 mph - N/A   Mostly Cloudy
4:55 PM 44.6 °F 39.2 °F 28.4 °F 53% 30.31 in 10.0 mi WNW 10.4 mph - N/A   Mostly Cloudy
5:15 PM 44.6 °F 40.2 °F 28.4 °F 53% 30.31 in 10.0 mi WNW 8.1 mph - N/A   Overcast
5:35 PM 44.6 °F 39.7 °F 28.4 °F 53% 30.31 in 10.0 mi West 9.2 mph - N/A   Overcast
5:55 PM 44.6 °F 39.2 °F 30.2 °F 57% 30.31 in 10.0 mi WNW 10.4 mph - N/A   Overcast
6:15 PM 44.6 °F 40.2 °F 30.2 °F 57% 30.30 in 10.0 mi WNW 8.1 mph - N/A   Overcast
6:35 PM 44.6 °F 40.2 °F 30.2 °F 57% 30.31 in 10.0 mi West 8.1 mph - N/A   Overcast
6:55 PM 44.6 °F 41.4 °F 30.2 °F 57% 30.31 in 10.0 mi West 5.8 mph - N/A   Scattered Clouds
7:15 PM 42.8 °F 38.0 °F 30.2 °F 61% 30.31 in 10.0 mi WNW 8.1 mph - N/A   Clear
7:35 PM 41.0 °F 38.0 °F 30.2 °F 65% 30.31 in 10.0 mi WNW 4.6 mph - N/A   Clear
7:55 PM 42.8 °F 38.6 °F 30.2 °F 61% 30.32 in 10.0 mi WSW 6.9 mph - N/A   Clear
8:15 PM 39.2 °F 33.6 °F 30.2 °F 70% 30.32 in 10.0 mi WSW 8.1 mph - N/A   Clear
8:35 PM 39.2 °F 33.6 °F 28.4 °F 65% 30.32 in 10.0 mi West 8.1 mph - N/A   Clear
8:55 PM 37.4 °F 31.4 °F 30.2 °F 75% 30.33 in 10.0 mi West 8.1 mph - N/A   Partly Cloudy
9:15 PM 39.2 °F 34.2 °F 30.2 °F 70% 30.34 in 10.0 mi WNW 6.9 mph - N/A   Mostly Cloudy
9:35 PM 39.2 °F 34.2 °F 32.0 °F 75% 30.35 in 10.0 mi WNW 6.9 mph - N/A   Overcast
9:55 PM 41.0 °F 36.4 °F 32.0 °F 70% 30.35 in 10.0 mi NW 6.9 mph - N/A   Overcast
10:15 PM 39.2 °F 32.5 °F 30.2 °F 70% 30.35 in 10.0 mi WNW 10.4 mph - N/A   Overcast
10:35 PM 39.2 °F 33.6 °F 30.2 °F 70% 30.35 in 10.0 mi NW 8.1 mph - N/A   Overcast
10:55 PM 39.2 °F 34.2 °F 30.2 °F 70% 30.34 in 10.0 mi NW 6.9 mph - N/A   Overcast
11:15 PM 39.2 °F 35.0 °F 30.2 °F 70% 30.34 in 10.0 mi NW 5.8 mph - N/A   Overcast
11:35 PM 39.2 °F 35.9 °F 30.2 °F 70% 30.35 in 10.0 mi NW 4.6 mph - N/A   Overcast
11:55 PM 41.0 °F 36.4 °F 28.4 °F 61% 30.34 in 10.0 mi NW 6.9 mph - N/A   Overcast